| time (UTC) | temp F | wind direction | speed MPH | gust MPH | rain 1hr in | rain 24hr in | rain mn in | humidity % | barometer mb |
| 20260507155903 | 89 | 182 | 1.0 | 3.0 | 0.00 | 0.00 | 0.00 | 65 | 1012.7 |
| 20260507154844 | 89 | 150 | 1.0 | 5.0 | 0.00 | 0.00 | 0.00 | 66 | 1012.8 |
| 20260507153812 | 89 | 37 | 1.0 | 5.0 | 0.00 | 0.00 | 0.00 | 68 | 1013.0 |
| 20260507152808 | 88 | 355 | 1.0 | 4.0 | 0.00 | 0.00 | 0.00 | 69 | 1013.2 |
| 20260507151815 | 88 | 61 | 1.0 | 4.0 | 0.00 | 0.00 | 0.00 | 72 | 1013.2 |
| 20260507150839 | 87 | 32 | 0.0 | 3.0 | 0.00 | 0.00 | 0.00 | 71 | 1013.3 |
| 20260507144654 | 86 | 84 | 0.0 | 3.0 | 0.00 | 0.00 | 0.00 | 74 | 1013.4 |
| 20260507143637 | 85 | 165 | 0.0 | 1.0 | 0.00 | 0.00 | 0.00 | 76 | 1013.5 |
| 20260507142610 | 84 | 355 | 0.0 | 3.0 | 0.00 | 0.00 | 0.00 | 76 | 1013.6 |
| 20260507141546 | 83 | 81 | 0.0 | 3.0 | 0.00 | 0.00 | 0.00 | 78 | 1013.5 |
| 20260507140548 | 82 | 53 | 1.0 | 3.0 | 0.00 | 0.00 | 0.00 | 78 | 1013.6 |
| 20260507135604 | 82 | 36 | 0.0 | 2.0 | 0.00 | 0.00 | 0.00 | 77 | 1013.6 |
| 20260507134615 | 81 | 96 | 0.0 | 2.0 | 0.00 | 0.00 | 0.00 | 80 | 1013.8 |
| 20260507133640 | 80 | 42 | 0.0 | 2.0 | 0.00 | 0.00 | 0.00 | 81 | 1013.7 |
| 20260507132700 | 79 | 78 | 0.0 | 3.0 | 0.00 | 0.00 | 0.00 | 83 | 1013.8 |
| 20260507131639 | 78 | 46 | 1.0 | 3.0 | 0.00 | 0.00 | 0.00 | 84 | 1013.9 |
| 20260507130624 | 76 | 40 | 0.0 | 2.0 | 0.00 | 0.00 | 0.00 | 87 | 1013.8 |
| 20260507125609 | 75 | 50 | 0.0 | 2.0 | 0.00 | 0.00 | 0.00 | 89 | 1013.7 |
| 20260507124608 | 73 | 61 | 0.0 | 2.0 | 0.00 | 0.00 | 0.00 | 90 | 1013.9 |
| 20260507123546 | 72 | 40 | 0.0 | 0.0 | 0.00 | 0.00 | 0.00 | 92 | 1013.9 |
| 20260507122531 | 71 | 40 | 0.0 | 0.0 | 0.00 | 0.00 | 0.00 | 93 | 1013.9 |
| 20260507121525 | 70 | 17 | 0.0 | 0.0 | 0.00 | 0.00 | 0.00 | 94 | 1014.0 |
| 20260507115354 | 67 | 17 | 0.0 | 0.0 | 0.00 | 0.00 | 0.00 | 96 | 1014.0 |
| 20260507114330 | 66 | 17 | 0.0 | 0.0 | 0.00 | 0.00 | 0.00 | 95 | 1013.9 |
| 20260507113326 | 65 | 17 | 0.0 | 0.0 | 0.00 | 0.00 | 0.00 | 95 | 1014.0 |
| 20260507112312 | 65 | 17 | 0.0 | 0.0 | 0.00 | 0.00 | 0.00 | 95 | 1013.8 |
| 20260507111319 | 64 | 71 | 0.0 | 0.0 | 0.00 | 0.00 | 0.00 | 95 | 1013.6 |
| 20260507110258 | 63 | 71 | 0.0 | 0.0 | 0.00 | 0.00 | 0.00 | 95 | 1013.5 |
| 20260507105241 | 63 | 74 | 0.0 | 0.0 | 0.00 | 0.00 | 0.00 | 94 | 1013.5 |
| 20260507104254 | 63 | 74 | 0.0 | 0.0 | 0.00 | 0.00 | 0.00 | 94 | 1013.5 |
| 20260507103318 | 62 | 74 | 0.0 | 0.0 | 0.00 | 0.00 | 0.00 | 94 | 1013.3 |
| 20260507101154 | 62 | 74 | 0.0 | 0.0 | 0.00 | 0.00 | 0.00 | 93 | 1013.1 |
| 20260507100157 | 62 | 74 | 0.0 | 0.0 | 0.00 | 0.00 | 0.00 | 93 | 1013.1 |
| 20260507095216 | 62 | 74 | 0.0 | 0.0 | 0.00 | 0.00 | 0.00 | 93 | 1013.1 |
| 20260507094219 | 62 | 74 | 0.0 | 0.0 | 0.00 | 0.00 | 0.00 | 93 | 1013.2 |
| 20260507093218 | 62 | 74 | 0.0 | 0.0 | 0.00 | 0.00 | 0.00 | 93 | 1012.9 |
| 20260507092232 | 63 | 74 | 0.0 | 0.0 | 0.00 | 0.00 | 0.00 | 93 | 1012.7 |
| 20260507091227 | 63 | 74 | 0.0 | 0.0 | 0.00 | 0.00 | 0.00 | 93 | 1012.6 |
| 20260507090213 | 63 | 74 | 0.0 | 0.0 | 0.00 | 0.00 | 0.00 | 93 | 1012.4 |
| 20260507084043 | 63 | 74 | 0.0 | 0.0 | 0.00 | 0.00 | 0.00 | 92 | 1012.4 |
| 20260507083107 | 63 | 74 | 0.0 | 0.0 | 0.00 | 0.00 | 0.00 | 93 | 1012.4 |
| 20260507082052 | 63 | 74 | 0.0 | 0.0 | 0.00 | 0.00 | 0.00 | 93 | 1012.5 |
| 20260507081041 | 63 | 74 | 0.0 | 0.0 | 0.00 | 0.00 | 0.00 | 92 | 1012.6 |
| 20260507074845 | 64 | 74 | 0.0 | 0.0 | 0.00 | 0.00 | 0.00 | 92 | 1012.3 |
| 20260507073848 | 64 | 74 | 0.0 | 0.0 | 0.00 | 0.00 | 0.00 | 91 | 1012.4 |
| 20260507071722 | 65 | 74 | 0.0 | 0.0 | 0.00 | 0.00 | 0.00 | 91 | 1012.7 |
| 20260507070731 | 65 | 74 | 0.0 | 0.0 | 0.00 | 0.01 | 0.00 | 91 | 1013.0 |
| 20260507065721 | 65 | 74 | 0.0 | 0.0 | 0.00 | 0.04 | 0.00 | 91 | 1013.0 |
| 20260507064709 | 65 | 74 | 0.0 | 0.0 | 0.00 | 0.04 | 0.00 | 90 | 1013.1 |
| 20260507063701 | 65 | 74 | 0.0 | 0.0 | 0.00 | 0.04 | 0.00 | 90 | 1013.4 |
| 20260507062635 | 66 | 74 | 0.0 | 0.0 | 0.00 | 0.04 | 0.00 | 91 | 1013.6 |
| 20260507061622 | 66 | 74 | 0.0 | 0.0 | 0.00 | 0.04 | 0.00 | 91 | 1013.8 |
| 20260507060612 | 66 | 74 | 0.0 | 0.0 | 0.00 | 0.04 | 0.00 | 91 | 1013.7 |
| 20260507054511 | 66 | 74 | 0.0 | 0.0 | 0.00 | 0.04 | 0.00 | 89 | 1014.0 |
| 20260507053508 | 66 | 74 | 0.0 | 0.0 | 0.00 | 0.04 | 0.00 | 89 | 1013.9 |
| 20260507051348 | 67 | 74 | 0.0 | 0.0 | 0.00 | 0.04 | 0.00 | 88 | 1014.2 |
| 20260507050344 | 67 | 74 | 0.0 | 0.0 | 0.00 | 0.04 | 0.00 | 89 | 1014.0 |
| 20260507045330 | 67 | 74 | 0.0 | 0.0 | 0.00 | 0.04 | 0.00 | 88 | 1013.9 |
| 20260507044303 | 67 | 74 | 0.0 | 0.0 | 0.00 | 0.04 | 0.00 | 88 | 1013.8 |
| 20260507043325 | 68 | 74 | 0.0 | 0.0 | 0.00 | 0.04 | 0.00 | 87 | 1014.0 |
| 20260507042341 | 68 | 74 | 0.0 | 0.0 | 0.00 | 0.04 | 0.00 | 86 | 1014.1 |
| 20260507041323 | 68 | 74 | 0.0 | 0.0 | 0.00 | 0.04 | 0.00 | 87 | 1014.3 |
| 20260507040311 | 69 | 74 | 0.0 | 0.0 | 0.00 | 0.04 | 0.00 | 85 | 1014.1 |
| 20260507035259 | 70 | 74 | 0.0 | 0.0 | 0.00 | 0.04 | 0.05 | 84 | 1014.1 |
| 20260507034255 | 70 | 74 | 0.0 | 0.0 | 0.00 | 0.04 | 0.05 | 83 | 1014.1 |
| 20260507033312 | 71 | 74 | 0.0 | 0.0 | 0.00 | 0.04 | 0.05 | 82 | 1014.2 |
| 20260507032331 | 71 | 74 | 0.0 | 0.0 | 0.00 | 0.04 | 0.05 | 82 | 1014.1 |
| 20260507031337 | 71 | 74 | 0.0 | 0.0 | 0.00 | 0.04 | 0.05 | 82 | 1013.9 |
| 20260507030347 | 72 | 119 | 0.0 | 1.0 | 0.00 | 0.04 | 0.05 | 82 | 1014.3 |
| 20260507024235 | 72 | 24 | 0.0 | 0.0 | 0.00 | 0.04 | 0.05 | 81 | 1013.5 |
| 20260507023216 | 73 | 24 | 0.0 | 0.0 | 0.00 | 0.04 | 0.05 | 79 | 1013.6 |
| 20260507022235 | 73 | 24 | 0.0 | 0.0 | 0.00 | 0.04 | 0.05 | 78 | 1013.5 |
| 20260507021210 | 74 | 24 | 0.0 | 0.0 | 0.00 | 0.04 | 0.05 | 77 | 1013.5 |
| 20260507020155 | 74 | 24 | 0.0 | 0.0 | 0.00 | 0.04 | 0.05 | 76 | 1013.6 |
| 20260507012907 | 75 | 24 | 0.0 | 1.0 | 0.00 | 0.04 | 0.05 | 75 | 1013.4 |
| 20260507011923 | 76 | 24 | 0.0 | 1.0 | 0.00 | 0.04 | 0.05 | 75 | 1013.3 |
| 20260507005914 | 76 | 30 | 0.0 | 1.0 | 0.00 | 0.04 | 0.05 | 76 | 1013.1 |
| 20260507004846 | 77 | 30 | 0.0 | 0.0 | 0.00 | 0.04 | 0.05 | 75 | 1013.1 |
| 20260507003839 | 77 | 30 | 0.0 | 0.0 | 0.00 | 0.04 | 0.05 | 74 | 1013.0 |
| 20260507002831 | 78 | 26 | 0.0 | 3.0 | 0.00 | 0.04 | 0.05 | 73 | 1013.1 |
| 20260507001807 | 78 | 333 | 0.0 | 3.0 | 0.00 | 0.04 | 0.05 | 72 | 1013.1 |
| 20260506235730 | 80 | 19 | 0.0 | 2.0 | 0.00 | 0.04 | 0.05 | 70 | 1013.0 |
| 20260506234740 | 80 | 318 | 0.0 | 0.0 | 0.00 | 0.04 | 0.05 | 69 | 1013.0 |
| 20260506233715 | 81 | 333 | 0.0 | 1.0 | 0.00 | 0.04 | 0.05 | 68 | 1013.0 |
| 20260506231451 | 82 | 0 | 1.0 | 3.0 | 0.00 | 0.04 | 0.05 | 65 | 1012.8 |
| 20260506230446 | 83 | 5 | 0.0 | 3.0 | 0.00 | 0.04 | 0.05 | 65 | 1012.6 |
| 20260506225442 | 83 | 332 | 1.0 | 3.0 | 0.00 | 0.04 | 0.05 | 63 | 1012.7 |
| 20260506224424 | 84 | 334 | 0.0 | 2.0 | 0.00 | 0.04 | 0.05 | 62 | 1012.8 |
| 20260506223401 | 84 | 333 | 0.0 | 4.0 | 0.00 | 0.04 | 0.05 | 62 | 1012.9 |
| 20260506221219 | 85 | 22 | 2.0 | 6.0 | 0.00 | 0.04 | 0.05 | 60 | 1012.7 |
| 20260506215100 | 85 | 284 | 1.0 | 10.0 | 0.00 | 0.04 | 0.05 | 60 | 1012.9 |
| 20260506214027 | 85 | 5 | 1.0 | 8.0 | 0.00 | 0.04 | 0.05 | 62 | 1013.1 |
| 20260506213029 | 85 | 303 | 3.0 | 8.0 | 0.00 | 0.04 | 0.05 | 63 | 1013.1 |
| 20260506212030 | 86 | 339 | 2.0 | 7.0 | 0.00 | 0.04 | 0.05 | 63 | 1013.1 |
| 20260506211033 | 86 | 355 | 2.0 | 7.0 | 0.00 | 0.04 | 0.05 | 62 | 1013.1 |
| 20260506210017 | 86 | 355 | 2.0 | 10.0 | 0.00 | 0.04 | 0.05 | 63 | 1013.0 |
| 20260506205041 | 86 | 318 | 3.0 | 10.0 | 0.00 | 0.04 | 0.05 | 63 | 1013.0 |
| 20260506204105 | 86 | 323 | 2.0 | 8.0 | 0.00 | 0.04 | 0.05 | 64 | 1013.1 |
| 20260506201930 | 86 | 0 | 3.0 | 9.0 | 0.00 | 0.04 | 0.05 | 65 | 1013.1 |
| 20260506200911 | 86 | 298 | 3.0 | 12.0 | 0.00 | 0.04 | 0.05 | 65 | 1013.0 |
| 20260506195931 | 86 | 30 | 3.0 | 12.0 | 0.00 | 0.04 | 0.05 | 67 | 1013.0 |
| 20260506194902 | 86 | 0 | 3.0 | 9.0 | 0.00 | 0.04 | 0.05 | 66 | 1013.2 |
| 20260506193845 | 86 | 336 | 3.0 | 9.0 | 0.00 | 0.04 | 0.05 | 68 | 1013.3 |
| 20260506192905 | 86 | 337 | 3.0 | 10.0 | 0.00 | 0.04 | 0.05 | 69 | 1013.5 |
| 20260506191842 | 87 | 0 | 3.0 | 10.0 | 0.00 | 0.04 | 0.05 | 69 | 1013.6 |
| 20260506190900 | 87 | 319 | 4.0 | 12.0 | 0.00 | 0.04 | 0.05 | 68 | 1013.6 |
| 20260506185909 | 87 | 325 | 3.0 | 12.0 | 0.00 | 0.04 | 0.05 | 68 | 1013.8 |
| 20260506183731 | 89 | 20 | 1.0 | 5.0 | 0.00 | 0.04 | 0.05 | 54 | 1013.9 |
| 20260506182730 | 89 | 344 | 2.0 | 4.0 | 0.00 | 0.04 | 0.05 | 54 | 1014.0 |
| 20260506180620 | 89 | 302 | 1.0 | 6.0 | 0.00 | 0.04 | 0.05 | 54 | 1014.2 |
| 20260506175633 | 88 | 40 | 1.0 | 5.0 | 0.00 | 0.04 | 0.05 | 57 | 1014.5 |
| 20260506174639 | 88 | 304 | 0.0 | 2.0 | 0.00 | 0.04 | 0.05 | 58 | 1014.6 |
| 20260506173650 | 88 | 343 | 0.0 | 0.0 | 0.00 | 0.04 | 0.05 | 57 | 1014.6 |
| 20260506172640 | 88 | 146 | 0.0 | 6.0 | 0.00 | 0.04 | 0.05 | 58 | 1014.8 |
| 20260506171652 | 88 | 44 | 0.0 | 0.0 | 0.00 | 0.04 | 0.05 | 61 | 1014.7 |
| 20260506170653 | 87 | 331 | 0.0 | 0.0 | 0.00 | 0.04 | 0.05 | 60 | 1014.9 |
| 20260506165656 | 87 | 45 | 0.0 | 2.0 | 0.00 | 0.04 | 0.05 | 60 | 1015.2 |
| 20260506164659 | 87 | 44 | 0.0 | 0.0 | 0.00 | 0.04 | 0.05 | 60 | 1015.1 |
| 20260506162610 | 86 | 72 | 0.0 | 0.0 | 0.00 | 0.04 | 0.05 | 61 | 1015.3 |
| 20260506161602 | 86 | 33 | 0.0 | 2.0 | 0.00 | 0.04 | 0.05 | 59 | 1015.4 |